Wind_Speed
18 18 19 20 20 21 21 22 22 25 22 17 13 11 11 13 13 8 6 6 4 2 4 8 6 6 1 2 4 4 3 3 4 6 6 7 5 2 5 9 1 3 8 18 27
19 20 20 21 21 22 22 22 23 25 21 14 10 9 11 14 12 10 11 9 9 1 3 5 6 8 2 2 2 4 3 8 6 6 5 7 6 6 5 9 10 14 20 29 30
21 21 22 22 22 22 21 22 22 25 18 12 9 9 10 12 2 7 4 13 8 3 4 5 5 2 3 2 4 4 4 5 2 7 9 9 5 4 12 4 12 20 19 21 24
22 22 23 23 23 22 22 21 21 24 16 11 9 9 11 3 2 2 2 11 10 4 2 2 3 7 4 5 4 5 7 6 3 7 7 7 7 9 6 4 18 21 21 19 17
23 24 24 24 24 23 22 21 21 23 14 9 9 10 3 2 7 2 1 9 10 6 5 2 2 1 3 6 7 5 2 6 6 10 6 10 6 7 8 12 20 20 19 19 17
23 24 25 25 25 24 22 22 22 21 12 8 8 9 3 3 6 5 3 11 8 8 4 5 4 5 4 4 3 4 1 11 4 8 7 11 9 5 7 13 16 18 17 16 16
25 25 26 25 25 25 25 23 21 18 8 6 6 5 2 9 8 4 3 5 8 7 3 5 4 3 3 5 6 3 5 6 4 2 5 10 5 4 12 12 11 15 13 13 12
26 27 26 26 27 27 26 23 22 12 4 3 3 2 6 4 11 11 4 3 5 8 12 13 7 4 1 4 8 5 5 4 4 6 6 5 1 5 7 11 8 9 6 4 4
27 28 27 26 27 28 26 24 16 2 2 1 2 2 8 9 7 6 8 2 4 7 7 10 1 3 6 4 5 7 1 3 3 4 5 4 3 1 3 7 8 4 7 7 6
29 28 27 26 28 28 25 19 3 2 3 2 0 3 5 2 4 7 7 7 3 5 7 7 6 3 4 5 1 4 5 4 5 3 7 10 5 2 2 5 6 5 6 5 5
29 30 29 28 27 27 25 4 3 2 2 6 5 5 5 6 4 6 7 5 3 7 2 5 5 7 7 3 3 3 3 7 3 7 6 6 4 3 2 3 3 5 7 8 7
31 31 30 28 29 24 9 2 2 1 8 9 7 6 11 4 4 4 6 4 3 2 3 6 7 7 3 4 5 3 7 4 4 5 6 6 5 6 5 2 3 6 8 8 6
32 33 32 29 26 5 8 6 5 11 2 7 6 5 5 10 7 7 9 4 3 3 3 7 8 8 5 9 5 2 5 5 6 5 7 7 4 6 3 5 5 3 9 10 8
35 34 32 28 3 11 8 7 18 6 4 7 4 7 5 5 2 7 10 6 1 8 6 5 7 8 10 8 3 7 9 6 11 5 4 2 2 4 6 6 3 5 5 10 8
39 37 30 19 14 4 4 18 6 3 2 3 4 3 4 8 3 5 7 5 7 4 6 7 1 1 5 10 5 10 4 7 5 6 5 8 5 6 4 5 6 10 2 7 4
43 33 26 9 7 11 10 12 3 5 5 1 6 6 6 2 2 3 4 6 5 3 2 7 4 6 9 7 6 2 5 9 6 5 3 4 3 5 0 4 3 3 16 16 12
42 28 22 9 4 4 14 3 5 3 5 1 4 4 4 3 2 5 6 5 5 3 4 8 6 4 5 4 3 5 7 3 4 5 4 2 3 5 5 6 5 15 7 8 4
39 29 11 14 4 14 2 5 3 3 6 5 2 4 7 5 4 3 5 4 1 5 2 2 8 5 4 8 9 3 8 6 4 4 2 3 2 3 4 6 7 7 14 10 9
38 10 6 3 18 5 5 3 7 6 4 7 3 5 1 4 4 3 5 6 9 8 7 5 6 5 4 5 8 3 2 3 8 3 3 4 5 4 6 7 6 5 11 10 11
23 9 5 2 17 6 5 5 4 4 6 5 3 2 5 3 6 7 8 7 8 11 6 5 2 2 5 2 7 5 5 3 4 4 2 3 4 5 8 10 8 6 10 10 8
7 3 7 13 10 5 3 7 5 7 4 3 1 4 7 8 10 6 7 3 3 2 5 6 4 6 6 5 1 3 3 8 6 3 4 0 6 5 10 14 11 8 10 10 8
6 3 2 14 4 1 3 5 4 6 4 7 4 8 7 6 4 6 7 7 3 6 9 6 5 4 2 7 4 4 5 5 5 4 1 4 6 3 10 12 12 9 9 8 9
2 2 5 6 1 2 5 5 5 5 5 4 4 4 3 3 4 1 3 3 5 5 11 9 0 4 7 6 4 7 3 4 6 4 6 6 5 4 7 7 9 13 8 8 9
1 3 4 3 1 1 5 6 4 4 6 6 5 2 4 1 1 5 2 3 4 2 6 7 5 8 8 7 5 4 5 3 5 4 5 5 2 3 7 9 9 8 11 9 9
3 1 2 2 3 5 2 4 6 3 4 3 2 0 5 3 3 4 2 3 4 7 5 4 4 3 3 5 4 7 7 7 4 5 6 5 8 8 12 13 13 8 10 11 8
2 3 4 2 3 5 2 3 7 6 5 5 2 3 5 7 7 7 5 2 3 5 5 3 2 3 4 5 5 1 4 7 4 3 5 4 7 8 6 8 8 10 14 12 9
5 2 2 3 3 2 3 4 8 11 7 5 5 5 3 3 1 5 5 4 4 3 3 4 6 3 2 2 4 5 9 9 5 5 7 5 7 4 5 11 14 13 15 13 9
Wind_Direction
354 352 350 349 346 345 345 345 343 341 336 329 324 322 318 315 315 288 246 211 158 239 318 335 327 339 282 216 213 121 37 301 207 163 169 175 127 130 75 130 78 203 132 134 141
354 351 349 347 345 344 343 344 344 343 339 335 329 326 323 323 320 261 232 202 216 86 4 7 337 340 319 209 226 122 121 213 189 150 136 147 122 121 96 99 81 81 109 129 134
353 351 349 346 343 342 341 343 343 345 342 340 336 334 329 327 319 247 221 206 200 188 341 323 301 279 316 170 232 177 212 171 35 131 134 132 113 95 117 87 133 129 134 142 145
352 349 347 345 342 340 339 342 343 344 342 342 340 336 328 340 161 65 251 190 193 214 291 304 26 343 309 325 252 195 226 127 168 130 111 127 112 120 99 138 138 141 148 153 155
350 347 346 343 341 338 339 341 341 341 337 340 343 341 346 316 253 320 350 171 186 193 215 194 0 295 329 300 315 215 115 93 100 99 97 115 103 104 106 139 143 146 153 167 169
350 348 346 342 340 338 338 339 336 337 331 335 344 344 356 308 325 312 201 166 180 191 201 166 219 236 253 276 29 278 157 102 100 106 127 112 108 80 159 151 148 156 162 173 178
348 347 345 340 337 334 333 336 331 329 318 329 347 0 14 243 345 9 159 192 203 203 231 216 205 44 316 320 290 67 72 46 68 148 96 107 41 109 163 152 160 161 172 178 192
348 345 342 338 335 332 330 331 324 314 291 316 12 20 251 273 291 279 255 217 227 235 250 281 285 209 235 303 0 48 63 107 261 168 180 82 133 155 136 133 122 90 82 94 208
347 344 341 336 333 330 329 331 325 251 185 69 70 55 272 304 272 256 218 209 217 264 267 288 37 63 19 45 13 5 245 176 134 298 131 79 120 284 93 125 114 134 127 136 127
345 342 338 335 333 327 329 332 0 127 140 68 58 0 282 276 263 240 209 223 53 339 357 42 46 17 46 71 246 333 345 298 149 36 60 87 77 62 138 147 156 161 189 168 162
345 342 336 335 331 326 327 318 12 16 197 209 204 237 275 307 259 231 202 126 81 62 355 12 29 261 248 176 217 254 255 269 93 130 80 64 71 352 124 150 132 230 226 186 190
344 340 334 333 330 322 326 76 165 61 302 234 241 269 267 293 335 289 159 128 100 167 70 8 264 272 316 274 255 180 257 231 51 72 78 107 50 345 32 290 281 239 275 269 210
344 339 333 332 327 332 315 262 330 336 180 293 196 202 208 148 203 249 138 136 125 134 180 195 242 340 343 303 329 20 188 194 156 113 81 130 46 346 331 319 310 230 296 290 16
343 337 331 331 339 330 285 327 327 156 52 274 227 259 156 148 261 217 173 135 86 191 172 230 266 261 292 291 111 302 213 188 134 114 129 350 143 319 310 347 334 330 281 308 6
342 336 328 328 299 268 306 325 342 110 339 166 208 158 136 146 160 235 164 64 175 172 119 237 143 1 247 244 154 241 186 138 102 91 102 354 94 259 289 351 356 301 207 311 321
339 336 325 316 267 264 319 331 107 46 259 256 151 174 118 144 216 66 139 73 149 151 287 231 258 202 223 262 224 88 89 41 55 79 61 252 134 266 250 249 311 23 324 307 286
335 332 307 255 239 199 339 25 52 153 319 273 180 144 153 151 207 145 166 146 155 110 316 321 262 246 173 200 356 94 59 357 6 15 201 62 96 229 216 230 220 147 224 272 340
333 325 289 249 207 265 327 55 184 238 258 298 109 89 166 157 232 137 113 177 203 102 115 173 323 195 174 184 195 189 148 154 214 189 255 19 233 162 171 114 187 189 139 114 88
335 326 279 286 200 140 78 102 212 218 283 339 30 107 264 212 161 120 182 215 193 163 171 171 274 312 227 205 137 164 69 166 105 50 82 283 271 290 182 139 191 151 110 100 99
331 326 273 285 161 124 77 234 240 243 346 355 70 128 178 180 164 157 171 216 210 183 160 219 282 326 298 70 37 130 147 75 28 124 226 275 281 206 146 155 181 165 125 122 122
338 12 350 137 127 54 156 238 273 264 293 292 284 240 219 186 174 193 213 301 184 165 136 136 116 280 37 0 204 70 64 54 107 107 147 303 271 198 159 170 169 169 150 143 145
343 52 44 147 61 50 176 208 283 269 217 252 243 206 201 161 134 207 194 208 19 172 168 210 124 56 167 284 354 89 103 120 116 223 218 144 266 353 161 156 152 163 166 160 144
26 272 154 338 104 290 292 286 244 254 264 237 245 229 117 145 106 199 173 235 343 168 176 176 125 89 342 340 344 71 66 92 95 80 190 142 260 78 116 135 155 158 169 155 143
33 57 347 47 159 80 345 291 287 308 265 224 247 151 110 104 57 167 161 271 329 76 43 78 102 163 177 187 145 107 145 180 106 124 180 224 288 213 171 173 183 169 160 151 150
21 14 173 326 313 319 180 277 291 285 259 288 82 149 161 139 119 160 231 294 357 0 72 89 92 85 96 134 129 168 183 180 168 171 157 234 196 218 194 191 191 159 139 150 152
48 23 352 277 313 329 40 298 297 296 222 280 199 176 157 161 180 182 144 213 188 340 69 35 118 50 46 15 27 212 222 194 203 160 309 286 282 190 182 131 164 153 148 153 163
354 345 115 278 357 36 276 308 281 317 255 251 178 114 82 348 97 127 136 92 117 69 85 76 137 105 189 350 354 309 220 191 195 194 167 178 230 152 157 165 170 161 156 160 155
Height
808 805 802 798 794 791 787 784 781 777 773 770 768 766 764 762 761 759 756 751 752 754 755 753 752 753 753 754 752 753 790 799 781 786 778 762 769 765 762 771 771 771 777 786 796
808 805 801 798 794 790 787 783 780 776 771 769 767 765 763 761 758 755 747 748 751 753 755 755 755 753 757 756 755 766 798 783 757 759 769 762 764 767 776 781 785 783 785 793 799
807 804 801 797 793 789 786 782 779 775 770 768 766 764 763 761 760 747 743 747 750 753 754 754 753 754 759 756 755 760 780 753 751 750 752 762 766 764 779 792 784 791 793 797 800
807 803 800 796 792 788 784 781 778 774 770 767 766 764 762 761 773 744 744 746 750 753 754 754 755 761 764 766 752 762 749 747 751 749 757 766 764 774 775 782 780 784 789 794 799
805 802 798 794 790 786 783 779 776 773 769 767 765 764 762 762 753 744 744 747 750 753 753 753 758 760 770 762 754 753 746 747 749 752 758 758 769 775 781 776 778 782 789 794 795
804 800 796 792 788 784 781 778 775 771 769 767 766 764 764 767 743 744 744 746 748 751 751 752 755 753 761 760 760 752 747 756 757 756 756 767 776 775 781 775 781 785 789 791 792
803 799 794 790 786 782 779 776 772 770 768 767 766 765 765 755 742 743 745 746 747 748 749 749 750 755 752 761 745 748 767 762 765 764 772 767 788 788 777 780 785 788 789 790 791
801 797 792 788 784 779 776 773 769 767 766 766 765 766 764 744 742 742 744 745 746 747 747 747 747 750 753 750 756 763 770 793 767 765 768 772 809 787 782 786 792 790 794 792 792
800 795 790 786 781 776 773 769 765 764 765 765 767 767 763 744 742 741 743 744 744 744 744 744 745 756 759 777 790 787 799 792 784 763 768 778 805 792 786 787 794 793 789 787 787
798 793 788 784 779 773 769 766 764 765 765 766 767 772 750 747 741 740 742 744 746 745 746 750 762 776 786 794 820 803 801 786 790 780 779 793 802 795 791 790 794 792 788 787 784
796 791 786 781 776 771 767 765 768 770 766 759 757 757 749 744 741 739 740 743 747 756 774 767 785 798 784 785 783 788 795 797 785 777 786 805 808 802 798 795 799 796 790 789 785
794 788 783 778 774 769 767 767 767 772 774 750 750 751 745 745 752 741 742 752 758 777 771 784 797 771 770 772 781 788 795 795 785 780 790 812 818 808 803 800 797 795 791 787 782
792 786 780 775 770 768 767 766 765 765 774 754 745 745 742 742 750 747 742 751 763 777 780 796 779 765 772 777 785 786 792 792 790 788 796 809 828 821 807 803 796 795 793 785 787
789 783 777 772 771 768 764 763 762 761 796 770 750 739 737 738 750 735 737 748 764 779 782 784 766 770 776 781 778 798 768 768 786 799 829 808 859 831 824 810 799 794 794 793 793
786 779 774 772 770 769 763 760 759 759 818 749 743 727 731 746 743 742 735 746 770 771 777 784 772 774 783 775 768 781 758 771 783 807 819 826 843 837 823 818 809 796 781 788 797
781 775 770 768 767 762 761 757 758 800 812 752 737 743 747 744 744 741 742 742 751 767 768 776 759 763 766 756 757 755 768 792 805 821 852 831 839 844 839 825 815 802 789 795 798
775 770 766 766 762 759 760 759 803 815 757 754 751 745 752 757 753 751 759 767 783 799 801 781 770 754 750 765 755 768 797 838 833 848 848 832 840 835 821 818 814 810 806 807 797
767 762 758 757 757 760 762 781 807 777 771 743 744 751 765 758 757 758 767 781 770 780 804 806 804 759 744 758 773 769 789 832 836 858 846 830 836 825 809 802 807 802 796 800 802
762 756 755 752 755 760 771 806 795 778 753 752 747 762 763 757 758 761 772 778 769 771 797 809 794 752 746 742 750 775 797 789 835 842 849 853 828 814 807 806 807 805 802 804 802
761 757 753 751 753 760 784 799 780 759 749 748 761 756 772 765 766 771 776 752 759 757 753 772 799 760 747 742 752 759 777 803 827 849 846 849 842 834 818 814 808 809 804 805 807
763 760 754 754 757 770 798 795 772 752 745 753 755 761 760 763 761 772 764 751 743 753 755 771 783 777 764 779 776 777 793 817 831 843 857 861 842 803 806 802 806 805 801 802 805
768 769 759 759 777 792 792 776 758 753 742 748 743 750 751 755 759 769 766 753 742 744 768 762 792 814 790 773 766 770 788 802 829 840 848 843 831 790 792 792 794 798 799 800 802
778 776 764 764 786 788 777 768 757 754 747 743 740 732 736 748 758 754 747 734 736 740 751 756 795 821 808 790 773 784 788 797 809 823 835 839 826 795 793 797 794 796 798 801 804
778 778 772 771 777 775 778 772 761 741 741 734 734 729 739 748 749 757 750 738 734 738 739 746 790 793 810 795 791 793 789 793 804 830 835 826 804 799 801 798 796 795 795 801 803
781 785 784 788 780 778 774 770 764 759 739 728 730 732 738 752 751 756 751 742 732 740 743 756 789 786 783 780 777 783 785 791 796 806 808 795 805 789 788 788 790 792 798 802 806
789 791 787 786 783 779 776 766 764 753 748 737 734 731 735 748 743 754 753 747 744 742 750 762 791 783 789 784 782 786 784 786 785 796 796 790 790 771 774 783 791 790 795 802 806
790 789 790 787 783 781 778 771 759 752 733 726 726 735 736 738 733 737 743 748 743 749 762 769 787 796 800 794 793 801 786 783 780 781 781 796 778 774 780 781 784 789 790 797 801